This demonstration page uses our WeatherBlox Daily Observations layout. Learn more.

Left ArrowRight Arrow

Hourly Observations for May 22, 2020

Temp ( °F °C ) Dew Point ( °F °C ) Humidity (%) Winds ( mph kmh ) Pressure ( in mb ) Visibility ( mi km ) Precip ( " mm )
12:01 am 00:01 Cloudy 59 15 59 15 100 100 Calm 30.07 1018 10 16 0.00 0.00
12:50 am 00:50 Cloudy 59 15 57 14 94 94 Calm 30.06 1018 8 13 0.00 0.00
12:53 am 00:53 Cloudy 59 15 58 14.4 96 96 Calm 30.06 1018 7 11 0.00 0.00
1:02 am 01:02 Mostly Cloudy with Mist and Fog 58 14.4 57 13.9 97 97 Calm 30.06 1018 3 4 0.00 0.00
1:06 am 01:06 Mostly Cloudy with Mist and Fog 57 13.9 57 13.9 100 100 Calm 30.06 1018 2 2 0.00 0.00
1:12 am 01:12 Mostly Cloudy with Mist and Fog 57 13.9 57 13.9 100 100 Calm 30.06 1018 2 3 0.00 0.00
1:16 am 01:16 Mostly Cloudy with Mist and Fog 57 13.9 57 13.9 100 100 Calm 30.06 1018 3 5 0.00 0.00
1:33 am 01:33 Cloudy with Mist and Fog 57 13.9 57 13.9 100 100 Calm 30.06 1018 5 8 0.00 0.00
1:53 am 01:53 Cloudy with Mist and Fog 58 14.4 58 14.4 100 100 Calm 30.06 1018 6 10 0.00 0.00
2:53 am 02:53 Cloudy 59 15 59 15 100 100 Calm 30.05 1018 7 11 0.00 0.00
3:53 am 03:53 Cloudy 59 15 59 15 100 100 Calm 30.05 1018 7 11 0.00 0.00
4:53 am 04:53 Cloudy 60 15.6 59 15 96 96 Calm 30.05 1018 8 13 0.00 0.00
5:53 am 05:53 Cloudy 60 15.6 58 14.4 93 93 Calm 30.05 1018 10 16 0.00 0.00
6:53 am 06:53 Cloudy 60 15.6 58 14.4 93 93 Calm 30.05 1018 10 16 0.00 0.00
7:53 am 07:53 Cloudy 61 16.1 59 15 93 93 Calm 30.06 1018 10 16 0.00 0.00
8:53 am 08:53 Cloudy 61 16.1 59 15 93 93 Calm 30.06 1018 10 16 0.00 0.00
9:49 am 09:49 Cloudy 63 17 59 15 88 88 Calm 30.07 1018 10 16 0.00 0.00
10:16 am 10:16 Cloudy 63 17 59 15 88 88 Calm 30.06 1018 10 16 0.00 0.00
10:53 am 10:53 Cloudy 64 17.8 59 15 84 84 NE 3 6 30.06 1018 10 16 0.00 0.00
11:45 am 11:45 Mostly Cloudy 67 19.4 60 15.6 79 79 E 3 6 30.06 1018 10 16 0.00 0.00
11:53 am 11:53 Mostly Cloudy 67 19.4 59 15 76 76 VRB 3 6 30.06 1018 10 16 0.00 0.00
12:53 pm 12:53 Partly Cloudy 68 20 58 14.4 70 70 Calm 30.04 1017 10 16 0.00 0.00
1:01 pm 13:01 Mostly Cloudy 70 21.1 59 15 68 68 Calm 30.02 1017 10 16 0.00 0.00
1:10 pm 13:10 Mostly Cloudy 71 21.7 60 15.6 68 68 Calm 30.02 1017 10 16 0.00 0.00
1:53 pm 13:53 Mostly Cloudy 71 21.7 59 15 66 66 Calm 30.02 1017 10 16 0.00 0.00
2:53 pm 14:53 Mostly Sunny 74 23.3 59 15 60 60 VRB 5 7 30.01 1016 10 16 0.00 0.00
3:53 pm 15:53 Sunny 76 24.4 58 14.4 54 54 Calm 29.99 1016 10 16 0.00 0.00
4:53 pm 16:53 Mostly Cloudy 75 23.9 55 12.8 50 50 Calm 29.98 1015 10 16 0.00 0.00
5:53 pm 17:53 Cloudy 75 23.9 57 13.9 54 54 N 5 7 29.97 1015 10 16 0.00 0.00
6:53 pm 18:53 Mostly Cloudy 73 22.8 60 15.6 64 64 Calm 29.96 1015 10 16 0.00 0.00
7:53 pm 19:53 Mostly Sunny 73 22.8 58 14.4 59 59 Calm 29.96 1014 10 16 0.00 0.00
8:53 pm 20:53 Clear 65 18.3 58 14.4 78 78 Calm 29.96 1015 10 16 0.00 0.00
9:53 pm 21:53 Partly Cloudy 60 15.6 58 14.4 93 93 Calm 29.99 1016 10 16 0.00 0.00
10:53 pm 22:53 Cloudy 64 17.8 59 15 84 84 Calm 30.00 1016 10 16 0.00 0.00
11:53 pm 23:53 Clear 61 16.1 59 15 93 93 Calm 30.00 1016 10 16 0.00 0.00

Powered by AerisWeather